This demonstration page uses our WeatherBlox Daily Observations layout. Learn more.

Left ArrowRight Arrow

Hourly Observations for November 27, 2021

Temp ( °F °C ) Dew Point ( °F °C ) Humidity (%) Winds ( mph kmh ) Pressure ( in mb ) Visibility ( mi km ) Precip ( " mm )
12:53 am 00:53 Clear 35 1.7 26 -3.3 70 70 WSW 13 20 30.10 1019 10 16 N/A
1:53 am 01:53 Clear 34 1.1 26 -3.3 73 73 SW 13 20 30.10 1019 10 16 N/A
2:53 am 02:53 Clear 32 undefined 24 -4.4 73 73 N 3 6 30.15 1021 10 16 N/A
3:53 am 03:53 Clear 31 -0.6 24 -4.4 76 76 N N/A 30.17 1022 10 16 N/A
4:53 am 04:53 Clear 29 -1.7 24 -4.4 82 82 SW 6 9 30.22 1023 10 16 N/A
5:53 am 05:53 Clear 29 -1.7 25 -3.9 85 85 N N/A 30.22 1023 10 16 N/A
6:53 am 06:53 Clear 27 -2.8 24 -4.4 89 89 ENE 8 13 30.25 1025 10 16 N/A
7:53 am 07:53 Sunny 26 -3.3 24 -4.4 92 92 E 8 13 30.27 1025 10 16 N/A
8:53 am 08:53 Sunny 27 -2.8 24 -4.4 89 89 NNE 3 6 30.28 1025 10 16 N/A
9:53 am 09:53 Sunny 32 undefined 27 -2.8 82 82 ENE 5 7 30.26 1025 10 16 N/A
10:53 am 10:53 Sunny 35 1.7 28 -2.2 76 76 E 5 7 30.25 1024 10 16 N/A
11:53 am 11:53 Sunny 38 3.3 28 -2.2 68 68 VRB 3 6 30.23 1024 10 16 N/A
12:53 pm 12:53 Sunny 39 3.9 28 -2.2 65 65 N N/A 30.20 1023 10 16 N/A
1:53 pm 13:53 Sunny 43 6.1 28 -2.2 56 56 VRB 3 6 30.18 1022 10 16 N/A
2:53 pm 14:53 Sunny 43 6.1 29 -1.7 58 58 E 7 11 30.15 1021 10 16 N/A
3:53 pm 15:53 Sunny 38 3.3 31 -0.6 76 76 E 9 15 30.13 1020 10 16 N/A
4:53 pm 16:53 Clear 36 2.2 30 -1.1 79 79 E 9 15 30.13 1020 10 16 N/A
5:53 pm 17:53 Clear 33 0.6 29 -1.7 85 85 E 7 11 30.11 1020 10 16 N/A
6:53 pm 18:53 Clear 31 -0.6 28 -2.2 89 89 ESE 6 9 30.11 1020 10 16 N/A
7:53 pm 19:53 Clear 29 -1.7 27 -2.8 92 92 ESE 3 6 30.09 1019 10 16 N/A
8:53 pm 20:53 Clear 32 undefined 28 -2.2 85 85 WSW 10 17 30.04 1017 10 16 N/A
9:53 pm 21:53 Clear 35 1.7 29 -1.7 78 78 SW 10 17 30.01 1016 10 16 N/A
10:53 pm 22:53 Clear 39 3.9 30 -1.1 70 70 SW 12 19 29.98 1015 10 16 N/A
11:53 pm 23:53 Clear 43 6.1 32 undefined 65 65 SW 16 26 29.95 1014 10 16 N/A

Powered by AerisWeather